Theta_e
346 347 347 348 348 347 348 348 348 348 348 348 348 348 347 346 347 348 348 347 346 345 344 344 343 342 342 342 339 334 333 333 332 334 336 337 338 338 338 338 341 343 344 345 346 346 347 347 345 345 346 346 346 348 347 347 349 350 349 348 347 344 343 344 343 341 340 340 341 341 340 339 340 341 341 340 340 340 341 341 340 339 338 339 338
346 347 347 348 348 347 348 348 348 348 348 348 348 348 347 345 346 349 347 345 346 345 344 344 343 342 340 339 337 333 332 331 331 333 334 335 335 335 336 336 337 342 344 345 347 347 346 345 345 345 346 345 345 348 347 346 349 349 347 347 347 345 345 345 343 342 342 342 342 341 339 339 341 340 340 340 340 341 341 340 340 339 338 338 339
345 347 348 348 348 348 348 348 348 349 348 348 348 347 348 345 346 349 346 343 344 345 345 344 345 344 341 340 338 336 336 335 335 336 336 337 336 335 337 337 338 340 344 346 347 347 345 345 346 345 344 344 345 346 347 345 347 348 345 347 347 346 346 345 343 344 343 343 343 340 337 339 341 340 340 341 340 340 340 340 339 338 339 339 338
344 346 347 348 349 348 348 348 348 349 348 348 348 348 348 346 346 348 346 341 341 344 346 345 345 345 344 343 342 341 341 341 342 342 342 341 339 337 338 339 338 339 342 346 346 346 346 346 345 343 342 343 344 346 347 346 347 347 346 347 347 346 346 345 344 344 343 343 343 341 340 341 341 340 341 340 339 340 339 339 339 339 339 339 339
344 345 345 347 348 349 349 349 349 349 348 348 348 348 348 346 345 346 345 341 338 342 345 346 346 346 346 345 344 344 344 345 345 346 345 344 340 337 337 337 338 337 339 343 344 345 346 345 344 343 343 343 343 346 348 346 345 346 347 348 347 347 347 345 343 344 344 342 343 343 342 343 342 341 341 340 339 340 339 338 340 340 340 339 340
344 345 345 346 347 348 349 349 349 349 348 348 348 348 348 347 345 346 346 342 339 341 344 346 347 347 346 346 345 345 345 345 345 345 346 343 338 335 335 336 335 335 336 339 341 343 345 344 344 344 345 344 342 343 346 344 344 347 348 349 348 348 347 346 344 344 344 342 342 343 343 343 343 341 342 341 340 340 340 341 341 341 341 342 342
344 345 345 346 347 348 349 349 349 349 348 348 349 348 348 348 346 344 344 341 341 344 346 346 347 347 347 346 345 345 345 345 345 345 345 344 340 336 334 335 334 334 336 337 339 342 343 343 344 344 344 343 341 341 343 344 345 347 348 348 348 348 348 348 346 345 344 343 344 345 344 345 344 343 344 342 341 342 342 343 343 344 346 346 345
344 344 345 347 347 348 349 350 349 349 349 349 349 349 349 349 346 342 341 340 340 346 349 348 348 348 347 347 345 344 346 346 345 345 346 347 343 336 333 334 334 335 336 339 341 342 343 343 345 346 344 342 342 342 343 346 348 348 348 347 346 348 349 349 347 346 344 344 344 345 345 346 345 345 345 343 343 344 343 343 345 347 348 347 346
344 344 344 346 348 348 349 350 350 349 350 350 350 350 350 350 347 343 341 340 340 344 347 349 349 348 347 348 346 345 346 346 346 346 346 348 343 335 334 335 334 336 338 340 343 343 343 342 344 344 343 342 342 344 346 349 350 349 349 347 345 347 349 348 347 347 345 344 346 346 345 346 346 345 345 345 345 345 345 345 345 345 346 346 346
344 344 343 345 347 348 348 349 349 350 351 351 350 350 351 350 350 347 342 340 341 343 346 348 348 349 348 348 346 346 347 346 347 346 347 348 343 337 338 336 334 338 339 340 344 345 342 340 341 342 344 343 343 345 348 351 350 349 349 349 348 348 347 346 344 344 345 344 347 347 345 346 346 346 345 345 346 345 345 345 345 345 346 346 345
344 344 344 345 345 346 348 349 348 350 351 351 350 350 351 350 351 350 342 339 342 343 345 347 348 348 348 348 347 346 346 347 347 347 347 346 342 341 342 338 335 339 341 341 345 346 342 340 341 341 343 345 344 345 348 350 350 349 348 349 350 348 345 344 341 341 342 342 344 346 346 347 348 348 347 347 346 346 345 345 346 346 345 346 346
346 345 344 346 345 345 349 349 349 349 349 351 351 351 352 351 351 351 343 339 341 344 344 345 347 348 348 348 348 347 347 347 347 347 346 345 343 344 345 342 338 338 343 345 344 344 343 341 341 340 342 344 345 345 347 349 349 349 349 348 348 346 343 342 340 340 340 339 341 343 344 347 350 350 349 347 347 347 347 346 346 346 347 347 347
346 345 346 348 347 346 348 349 348 349 349 351 351 351 352 351 351 351 346 338 338 341 342 343 345 347 349 348 347 347 347 348 347 346 346 345 344 344 345 345 342 339 342 345 344 342 342 341 340 340 341 343 345 345 346 347 347 349 349 347 344 342 342 342 341 339 340 340 342 343 345 348 350 351 350 349 348 348 347 346 346 347 348 347 347
347 345 348 350 349 347 347 348 348 349 349 350 351 351 351 351 351 352 349 341 337 338 340 341 342 345 348 349 348 348 348 348 348 347 347 346 344 344 345 345 344 343 343 343 342 342 342 340 340 340 341 341 342 344 345 347 347 349 348 347 344 343 343 344 342 340 340 340 341 344 347 348 350 351 351 350 349 349 348 347 347 347 347 347 347
349 348 350 352 350 348 347 348 348 349 348 349 351 351 351 351 351 351 351 346 339 338 339 339 339 342 345 347 347 348 349 349 348 347 347 346 345 345 345 345 346 345 345 344 343 343 342 341 340 340 340 339 340 342 344 345 346 347 349 349 348 346 346 344 342 342 342 342 343 344 347 348 350 351 351 351 350 350 349 348 347 348 348 348 349
351 351 352 353 351 348 348 347 348 349 349 350 350 351 351 351 351 350 352 348 341 338 339 337 336 338 341 344 345 345 347 348 348 347 347 346 344 344 344 345 345 346 346 345 344 343 343 343 342 341 340 340 340 341 343 343 343 345 347 348 348 349 348 345 342 342 342 343 344 345 347 349 350 351 350 351 351 350 349 349 349 349 348 349 350
352 354 353 352 350 349 348 348 348 349 351 351 351 351 351 351 350 351 352 350 344 340 340 339 336 335 337 341 343 344 344 345 346 346 346 346 345 345 344 345 346 345 346 345 344 343 344 345 345 343 342 341 341 341 342 342 342 343 344 345 345 347 349 346 343 342 341 342 344 346 347 349 351 351 351 352 352 352 351 351 350 349 349 349 349
354 355 353 352 350 348 348 348 348 350 351 351 351 351 351 351 351 352 351 348 346 343 342 342 340 336 335 337 340 342 342 344 345 346 347 347 346 345 344 345 345 344 343 344 343 342 343 345 346 345 344 344 343 342 341 341 342 342 342 342 342 343 345 344 342 341 339 340 343 345 347 349 351 352 353 353 353 353 352 351 351 351 350 349 348
354 352 351 350 350 347 347 348 349 349 350 350 351 351 352 351 352 351 349 346 345 344 342 343 343 340 336 336 337 339 340 341 344 346 347 346 343 342 344 343 342 341 342 343 345 344 345 345 345 345 345 345 345 345 342 341 340 340 339 339 339 341 341 341 340 340 340 342 342 343 345 347 349 350 351 352 352 352 352 351 351 351 350 350 349
353 351 350 350 349 347 347 348 349 349 350 350 351 352 352 352 352 352 349 348 347 345 342 341 343 342 340 338 336 337 337 337 340 343 344 342 339 340 341 341 341 342 342 345 346 347 347 346 345 345 345 344 345 344 343 342 342 341 339 338 337 339 340 340 341 341 342 345 345 345 344 344 348 351 351 351 351 350 349 348 349 351 350 350 350
351 351 351 350 349 348 347 348 348 350 351 352 351 352 352 352 354 352 351 349 347 346 345 344 342 341 341 340 339 339 338 337 337 340 341 340 339 340 340 341 344 346 346 345 346 347 348 347 347 346 346 346 345 344 343 343 344 344 342 340 338 338 339 340 340 341 344 348 349 348 347 346 348 352 353 352 350 349 349 349 350 350 351 350 350
348 349 349 348 348 348 347 347 347 349 351 353 353 353 353 354 355 354 353 352 350 348 346 346 344 342 341 341 342 342 343 342 342 344 345 345 345 347 346 345 346 348 348 347 346 346 347 347 347 347 347 348 348 348 346 345 344 344 344 344 342 340 340 341 341 341 343 347 349 348 348 346 347 349 351 352 351 350 351 352 352 351 351 351 351
348 349 349 348 348 348 348 347 347 349 350 351 352 353 355 355 355 353 351 352 354 353 350 347 347 345 343 342 342 344 346 348 347 348 350 350 349 350 350 348 348 348 349 348 347 346 347 347 347 347 348 348 349 350 350 349 346 345 345 347 347 345 343 343 343 344 345 347 349 351 350 349 347 347 348 349 350 351 353 354 353 353 352 352 352
348 349 349 348 348 348 349 348 347 347 347 348 350 351 352 353 354 351 349 349 351 353 353 352 351 349 347 347 345 345 349 352 351 349 349 350 351 350 350 349 348 348 349 348 348 347 347 347 346 346 347 348 348 349 350 350 349 348 348 348 349 348 348 347 347 347 348 350 352 353 352 351 351 350 350 351 353 354 355 354 354 354 353 353 352
348 348 348 348 347 347 349 349 348 349 348 348 348 348 348 349 349 348 348 348 349 350 352 354 354 352 351 351 350 350 351 352 352 351 349 349 351 351 351 350 348 348 347 347 348 347 347 347 347 346 346 346 346 347 348 350 350 350 350 349 349 349 349 349 349 349 349 350 351 350 349 350 350 350 351 353 354 355 355 354 354 354 354 353 352
346 347 348 348 348 348 348 349 349 350 350 348 348 348 347 347 347 346 346 347 347 348 349 351 353 353 353 354 353 353 352 352 352 353 351 350 350 351 351 351 350 349 348 347 347 347 347 347 347 347 346 346 346 347 347 349 351 351 351 351 350 350 350 351 350 350 351 351 350 349 349 349 349 350 351 352 354 354 355 355 354 353 353 353 353
344 346 346 347 347 347 348 348 347 348 349 349 350 349 347 347 347 346 347 346 346 347 346 347 350 351 352 353 354 353 353 352 352 352 352 352 352 351 351 351 350 349 349 348 348 348 348 347 347 347 347 347 346 346 347 348 349 350 350 351 351 350 350 351 351 351 352 353 352 352 352 350 350 350 352 354 355 355 355 354 354 353 352 352 352
344 344 345 345 345 346 347 347 347 347 346 347 350 350 349 348 346 346 346 347 346 347 347 347 349 349 350 352 352 353 353 353 352 353 353 353 353 352 351 349 349 349 349 348 348 348 348 348 348 348 348 347 347 347 348 348 349 348 348 349 350 350 350 351 351 351 352 353 353 353 352 352 351 351 353 354 354 353 354 353 352 352 351 352 352
342 343 344 344 344 344 345 346 347 348 347 346 346 348 350 349 348 349 350 350 350 350 350 349 349 349 349 351 352 352 352 352 352 352 352 352 351 350 350 349 349 349 349 349 348 348 347 347 347 348 348 348 348 348 348 348 348 348 346 347 348 349 350 351 351 351 352 352 353 352 352 352 351 352 351 348 347 351 353 352 351 351 351 351 351
341 341 342 342 342 343 344 345 346 347 348 347 346 345 346 348 350 351 351 350 351 353 354 352 352 349 348 349 350 351 351 351 350 350 350 349 348 347 348 349 349 349 348 349 349 348 347 346 346 346 347 347 347 347 348 348 348 347 346 346 348 349 350 351 352 352 352 353 353 352 352 352 352 352 351 348 348 351 353 352 352 351 350 350 350
339 340 340 341 341 342 342 343 344 346 347 348 348 348 347 346 346 346 347 346 348 352 354 354 354 352 351 350 349 350 351 351 350 350 350 350 349 350 350 350 349 349 348 348 348 349 348 347 347 347 347 347 347 347 348 348 347 347 346 347 349 349 350 352 353 353 353 353 353 352 352 352 352 352 352 351 350 349 351 352 353 351 350 349 350
339 340 340 340 340 342 342 343 344 345 346 346 347 348 348 348 346 345 345 346 346 349 352 353 353 353 353 353 352 353 353 352 352 353 352 352 352 352 352 351 351 350 349 349 349 349 348 347 347 347 347 347 348 347 348 348 349 349 350 351 352 352 352 352 352 352 353 353 353 353 353 353 353 353 352 352 351 350 350 351 352 351 351 350 350
339 339 340 340 341 342 343 344 344 345 346 346 347 348 348 349 349 347 346 346 345 347 349 350 351 350 352 353 352 351 351 350 351 350 350 350 349 350 350 351 351 350 350 350 351 350 350 349 349 349 349 349 348 348 349 350 350 352 353 353 354 353 352 350 349 350 351 352 353 353 353 353 353 353 352 351 351 351 351 351 350 351 350 349 349
339 339 340 340 341 342 343 344 345 345 345 346 347 347 347 347 348 348 348 348 346 345 345 346 347 348 348 348 347 346 346 347 348 348 348 349 348 348 349 349 350 350 350 351 351 352 352 352 352 352 352 350 349 349 349 350 351 352 353 353 353 352 350 349 348 349 350 352 352 353 353 353 353 353 352 351 350 351 351 351 349 349 349 349 349
338 339 339 339 340 341 340 341 343 344 345 345 345 346 346 345 346 346 347 347 347 346 345 345 345 346 346 346 345 344 343 344 345 345 346 347 349 349 349 349 349 350 350 351 351 351 351 351 352 353 352 352 350 350 349 349 350 352 353 352 351 350 349 349 349 349 350 351 352 352 353 353 353 353 353 352 351 350 351 351 349 349 349 349 349
337 337 338 339 339 339 338 338 338 340 343 343 342 343 344 344 344 344 346 347 347 347 347 347 347 346 345 345 345 344 343 343 342 340 342 345 348 349 349 349 349 349 349 349 350 350 350 350 351 351 350 351 350 350 350 350 351 352 352 352 351 350 350 349 349 349 350 351 351 352 352 352 351 352 352 351 351 350 351 351 350 349 348 349 349
335 335 336 337 337 337 337 336 336 337 339 340 340 340 342 342 343 344 345 345 345 345 345 345 345 345 345 345 345 344 344 345 344 342 344 347 348 349 349 349 349 349 349 349 349 349 349 349 350 350 350 350 350 350 349 350 350 351 351 350 350 350 350 349 349 349 350 350 351 351 351 350 350 351 350 350 350 350 350 350 349 349 349 348 348
334 334 334 335 335 336 335 335 335 335 335 337 338 339 339 339 339 339 341 341 342 342 342 341 342 342 343 344 344 344 345 346 346 346 347 347 347 347 346 346 346 346 346 346 346 346 346 346 347 348 348 348 349 349 349 349 349 349 349 349 349 349 349 349 349 349 349 350 351 351 350 350 350 349 349 349 349 349 349 348 348 347 347 346 345
333 333 333 333 334 333 333 333 333 332 330 330 330 332 332 330 330 331 334 336 337 337 338 338 339 340 341 341 342 342 343 343 343 343 344 342 341 340 340 339 340 339 340 341 342 341 341 341 342 344 345 345 346 346 347 347 347 348 349 348 348 349 349 349 350 350 350 350 351 351 350 349 349 349 349 348 347 347 347 346 346 346 346 345 345
332 333 333 333 333 332 332 332 331 330 328 325 325 326 326 324 323 323 325 327 330 332 333 334 335 336 337 338 338 339 340 340 340 340 339 338 337 337 337 337 338 338 339 340 340 339 337 336 337 338 339 339 339 339 339 339 341 343 346 347 349 349 350 349 350 350 350 350 350 351 350 349 349 349 349 348 347 347 346 346 346 346 345 345 345
331 332 332 332 332 332 332 332 331 331 330 326 325 326 326 325 323 323 322 323 324 326 327 329 330 332 333 334 335 336 337 337 337 338 338 338 337 338 338 338 337 338 338 338 338 337 337 337 336 336 336 335 335 336 336 335 335 336 338 340 342 342 342 344 343 344 348 350 349 349 349 349 349 348 347 348 348 347 346 346 345 345 344 343 342
330 330 331 332 332 332 332 330 328 329 329 327 327 328 327 326 324 324 324 323 322 323 323 324 325 326 328 329 331 332 334 335 336 337 337 338 338 337 337 337 338 338 339 338 338 338 338 338 338 338 337 337 337 337 337 337 337 336 336 336 337 335 336 338 338 339 344 347 347 348 347 347 346 346 345 345 345 343 342 341 341 341 340 338 338
327 328 330 331 331 332 331 326 321 321 321 322 325 326 325 324 325 324 324 322 320 318 318 318 319 321 323 324 325 327 328 330 332 334 334 335 336 336 337 338 338 338 338 338 337 337 337 336 336 336 335 334 334 333 334 335 336 336 337 338 338 338 338 338 338 338 340 341 342 344 345 344 344 344 342 340 339 337 337 337 337 336 336 336 335
324 326 328 330 329 328 327 324 324 323 321 321 325 326 325 325 326 325 324 323 320 316 315 314 314 316 318 319 320 322 325 328 330 331 332 332 333 333 334 334 334 335 334 334 333 333 332 331 329 327 326 326 326 327 328 330 331 332 333 335 336 337 337 338 338 338 339 339 341 342 342 340 340 339 338 337 336 336 336 335 335 335 335 334 334
322 322 323 324 322 320 323 328 330 330 327 326 327 328 327 326 327 326 325 325 323 320 319 316 312 311 311 312 313 315 318 321 323 325 328 329 331 332 332 332 332 331 330 328 326 323 320 317 315 314 314 315 316 317 319 321 323 324 326 327 329 330 330 331 332 333 335 335 336 336 336 335 336 336 336 335 336 336 334 334 333 333 333 333 334
321 321 321 321 318 318 323 329 332 331 330 329 328 327 326 327 327 327 327 326 324 322 321 319 316 313 312 313 313 314 313 313 314 315 317 319 320 321 322 321 321 321 319 316 314 311 309 308 308 308 308 309 309 310 311 313 314 315 317 319 320 320 320 321 323 326 329 331 333 333 334 335 336 337 336 336 335 333 332 332 333 333 333 333 333
321 321 322 323 322 322 324 327 330 331 331 330 328 327 327 328 329 329 328 327 324 322 323 323 322 320 319 319 321 321 319 318 318 318 318 317 316 314 313 312 311 311 309 308 308 308 308 307 307 307 307 308 308 308 308 309 310 311 312 313 314 316 319 321 323 326 328 330 332 333 334 336 336 336 335 334 333 330 330 331 331 331 332 332 332
321 321 323 324 324 325 325 325 326 328 330 329 328 328 328 328 328 328 328 328 327 325 323 324 324 324 323 323 324 324 324 323 323 322 322 322 320 318 317 317 316 314 311 309 308 308 308 308 308 308 308 309 310 310 310 310 309 309 311 313 316 322 326 328 330 330 331 331 332 333 334 334 335 335 334 332 329 328 329 330 330 329 330 331 331
322 322 323 324 324 325 325 322 319 317 318 320 323 325 326 326 325 325 325 326 327 326 324 324 324 324 324 324 324 325 325 325 324 324 323 323 323 322 321 320 320 319 317 315 314 314 313 311 310 309 309 310 312 313 314 314 313 312 311 312 317 323 327 330 331 332 333 333 334 334 333 333 333 332 330 327 328 329 329 329 329 329 329 330 330
325 325 324 323 323 323 322 319 316 313 312 313 316 320 324 325 325 324 323 323 324 326 326 325 325 324 324 324 323 323 324 325 325 325 325 324 324 323 322 322 321 321 320 319 319 319 318 316 313 311 310 312 314 317 318 318 318 316 315 314 315 317 321 323 325 326 328 328 329 329 329 329 330 329 326 326 329 330 328 328 329 329 329 329 329
328 327 325 321 321 320 318 316 316 315 314 315 316 319 323 326 327 326 324 321 322 323 324 324 323 324 325 325 323 323 323 323 324 325 325 325 325 325 325 324 323 322 321 321 321 320 320 319 316 313 312 313 316 319 320 320 320 319 318 317 316 315 316 316 316 317 317 318 319 321 322 324 326 326 325 327 329 329 327 327 328 329 329 328 328
Wind_Speed
21 20 21 20 21 21 19 18 16 17 20 18 13 12 10 10 10 12 11 11 12 14 15 15 14 14 15 16 17 18 19 19 20 19 18 17 16 15 15 15 14 14 12 12 11 9 10 9 8 9 9 9 9 9 8 8 7 5 5 4 4 5 4 1 1 1 3 2 3 8 8 6 5 8 7 8 9 9 10 12 13 11 9 7 6
19 23 24 21 21 24 22 18 19 23 23 18 15 15 12 10 10 12 12 12 13 13 14 14 13 13 15 16 17 18 19 19 19 18 17 16 16 15 15 14 14 14 12 11 11 10 10 8 7 8 9 9 10 9 9 9 7 5 7 5 5 5 2 0 1 1 2 3 3 6 8 6 5 5 5 6 9 10 11 12 12 10 7 4 6
11 19 23 25 26 25 23 21 22 24 22 19 17 16 13 11 11 12 12 13 13 14 14 13 11 11 13 15 16 17 17 17 17 16 16 15 15 15 15 14 14 14 12 11 10 9 9 7 7 8 9 10 11 9 9 9 7 6 8 6 5 4 1 1 2 3 3 3 2 4 6 7 8 7 5 7 9 9 8 6 7 7 7 5 7
10 16 14 20 30 27 23 24 25 24 23 22 19 17 15 12 12 12 12 13 13 14 15 13 11 10 11 12 13 13 13 14 15 15 15 14 14 14 14 14 14 14 13 11 9 9 8 8 8 9 9 10 11 10 8 7 7 7 7 7 5 4 3 2 2 3 4 3 2 1 2 5 7 7 6 7 7 7 6 5 5 6 7 7 8
14 20 14 13 24 28 26 25 25 25 25 24 21 18 16 14 13 13 12 14 14 15 16 15 13 13 13 13 13 13 13 14 15 15 14 13 14 14 13 13 14 14 14 11 9 9 8 8 9 9 9 9 10 10 7 7 8 8 7 7 5 4 4 4 3 3 4 4 3 1 1 2 1 2 3 4 5 5 5 5 4 4 5 7 8
15 21 20 16 18 24 28 26 25 26 26 24 21 19 16 15 15 14 14 14 15 17 17 16 15 14 15 17 17 17 16 17 16 14 13 13 13 13 13 14 15 15 14 11 10 10 8 8 9 9 9 9 11 10 8 8 9 8 7 7 6 5 5 5 5 3 2 3 1 1 1 2 3 2 1 2 3 3 3 5 3 2 4 6 7
18 17 19 22 20 22 26 27 27 27 26 24 21 19 16 15 15 16 16 16 17 18 17 16 15 14 14 16 17 18 17 17 15 12 11 9 10 12 13 15 15 15 13 12 11 10 10 9 9 9 9 9 10 10 10 10 10 9 8 7 7 5 5 5 5 5 3 1 2 3 1 1 2 2 3 2 2 1 2 3 2 1 4 6 7
20 18 19 21 24 26 26 28 29 27 26 24 21 19 18 15 15 16 18 18 19 18 17 17 15 14 14 13 16 16 13 13 13 11 9 7 9 12 14 15 15 15 14 13 12 11 11 10 9 9 10 10 11 11 11 12 10 9 9 8 7 6 7 6 6 6 5 4 4 4 2 1 1 2 3 3 5 5 3 3 2 3 4 5 6
22 22 20 20 24 28 27 27 30 28 25 23 21 20 18 16 15 16 18 20 20 19 20 19 17 16 15 15 15 14 12 12 12 11 10 10 10 12 13 16 16 15 15 14 13 12 12 11 10 10 11 11 12 12 12 12 11 10 10 9 8 9 9 7 7 8 6 5 5 5 3 1 1 2 4 4 7 8 6 5 6 6 6 6 7
21 22 21 18 19 25 27 26 27 28 26 22 21 20 18 16 15 15 19 22 22 21 22 22 21 19 18 17 16 15 14 14 13 13 13 13 12 12 13 15 17 16 16 15 14 13 12 12 11 11 11 11 12 12 12 12 11 11 10 10 10 10 10 9 9 10 8 6 5 4 4 3 1 3 4 6 7 8 8 8 8 8 8 8 8
19 18 20 16 14 20 27 27 24 25 26 24 22 22 20 17 17 16 18 22 24 23 24 25 24 22 21 20 18 18 18 16 16 15 15 15 14 13 12 13 16 16 16 15 14 13 12 12 12 11 11 11 12 13 13 12 12 11 11 12 11 10 10 10 11 11 10 9 8 6 5 3 2 5 5 6 8 8 8 9 9 9 10 8 7
18 17 17 12 10 17 27 29 25 24 27 27 25 23 22 19 18 18 18 22 24 24 26 27 26 25 23 23 22 21 20 19 18 16 16 16 15 13 12 13 15 17 16 15 14 13 12 13 13 13 12 12 12 14 14 14 12 11 12 13 12 10 10 11 11 11 11 10 10 9 8 5 5 6 6 5 6 7 8 9 9 8 8 8 8
18 17 14 6 6 14 24 28 27 26 27 29 27 23 24 22 20 19 19 20 23 24 26 27 26 26 25 25 24 22 21 21 20 18 17 17 16 16 16 15 16 18 17 15 14 13 13 13 13 13 14 13 14 15 15 14 13 11 11 13 12 11 11 11 12 12 11 11 10 10 9 7 6 7 7 6 6 7 8 9 8 7 8 9 10
18 17 12 5 5 9 20 27 27 27 27 28 28 25 24 24 22 21 19 20 22 23 25 26 25 26 26 26 25 23 22 22 22 20 19 19 19 18 18 17 16 18 17 15 14 13 13 13 13 14 14 14 15 16 16 15 14 13 12 12 13 12 11 12 12 11 11 11 11 10 9 9 8 7 9 9 8 7 8 8 8 8 8 10 12
12 14 10 8 7 6 14 26 28 27 28 29 28 26 26 25 24 23 20 20 22 22 23 24 24 25 26 26 24 23 22 22 23 23 21 21 21 19 19 18 17 17 16 15 14 15 14 13 13 14 15 15 15 15 16 15 15 14 14 13 13 12 11 11 10 10 10 10 11 11 10 10 9 8 9 10 9 9 8 7 7 8 9 11 12
7 8 9 11 13 9 9 22 31 28 28 31 29 27 27 26 25 23 20 20 21 22 22 23 23 24 25 27 25 23 22 22 23 23 23 22 22 22 22 21 19 17 17 16 15 15 15 13 12 14 15 14 14 14 15 15 15 14 15 15 14 13 12 11 10 10 10 10 11 13 12 12 10 9 9 9 10 10 9 7 6 8 10 12 12
7 8 11 13 16 13 8 17 32 31 29 33 32 28 28 27 25 23 20 20 21 21 21 21 22 23 24 26 26 23 22 22 23 22 21 20 20 22 23 23 21 19 19 18 16 15 15 13 12 13 14 14 14 14 15 15 15 15 16 16 15 15 15 15 13 13 13 12 12 13 13 13 12 10 9 9 10 11 11 9 7 7 9 11 11
4 4 9 12 13 14 9 12 28 34 33 34 32 30 29 28 26 23 20 20 22 22 21 21 21 22 23 24 26 25 22 22 23 21 20 19 18 20 22 23 23 21 18 17 16 16 15 15 14 14 13 13 13 14 14 15 16 16 16 16 16 16 17 17 16 16 15 14 12 12 12 13 13 12 10 10 11 13 13 11 9 8 9 10 12
2 3 3 6 8 10 9 7 17 30 34 34 32 32 30 28 26 24 20 20 22 23 23 22 22 22 23 23 24 25 23 23 23 22 21 19 18 17 18 20 21 20 17 15 15 15 15 15 15 15 15 15 15 14 14 14 16 17 17 17 16 16 17 17 16 16 15 13 13 12 11 12 12 13 13 14 15 15 15 15 13 11 11 12 14
4 5 3 4 6 10 10 5 5 18 28 32 32 32 30 29 28 25 22 22 24 25 24 23 22 22 22 23 23 24 23 23 23 24 23 21 19 17 16 16 16 16 14 14 15 16 16 16 15 16 16 17 17 17 15 14 15 15 16 17 17 17 17 17 16 15 14 13 13 13 13 13 12 12 14 15 15 15 13 13 14 14 13 14 14
4 5 5 5 7 10 13 8 3 8 19 28 32 31 29 29 30 28 25 23 25 25 23 23 22 21 22 22 22 23 23 22 22 22 23 22 19 16 15 15 15 13 12 13 15 17 18 18 17 17 17 16 17 17 17 17 17 16 15 15 16 17 18 17 16 16 15 13 13 13 14 13 13 13 14 14 14 12 9 9 11 13 14 14 13
2 4 5 5 8 11 14 12 6 7 14 22 28 31 31 32 32 30 26 24 24 24 22 22 22 21 22 22 22 22 22 22 21 20 19 19 17 15 15 16 16 16 15 15 15 17 19 19 19 19 18 17 16 16 17 19 20 19 15 13 13 15 17 17 16 17 16 14 13 13 14 14 14 15 16 17 17 13 9 9 11 12 13 14 14
4 4 5 3 5 9 12 13 10 10 14 18 21 25 29 31 31 27 23 23 25 24 22 21 21 21 21 21 21 21 21 20 21 21 19 18 17 17 18 18 18 19 20 19 18 18 19 20 20 19 19 18 18 17 16 17 18 19 16 13 12 12 14 15 15 16 15 14 13 13 14 14 14 15 16 17 16 13 11 12 12 13 15 16 15
6 7 8 3 4 7 10 13 14 13 15 16 15 17 20 23 25 23 20 20 21 22 23 23 21 21 20 21 21 20 19 19 20 21 21 21 20 20 20 21 21 21 21 21 20 20 20 20 21 21 21 20 19 18 17 16 16 16 15 15 14 14 13 13 14 14 15 15 15 14 14 13 13 13 13 13 14 14 14 15 15 16 17 17 16
11 11 12 8 7 8 9 13 14 15 18 18 13 11 13 16 19 20 19 18 17 19 23 24 23 22 22 21 21 21 19 18 18 19 20 22 23 24 23 23 24 24 23 24 23 23 23 23 23 23 24 23 22 20 20 19 18 18 17 17 18 18 16 15 15 15 16 17 18 17 16 15 15 14 13 12 13 14 15 16 16 17 18 17 16
13 13 13 12 9 7 6 9 12 12 15 17 14 12 13 13 13 14 15 17 17 19 22 23 23 23 24 23 22 22 21 19 19 19 19 20 22 24 25 26 26 25 25 26 26 26 26 26 26 26 27 27 25 24 23 22 22 21 21 21 21 21 19 17 16 16 17 18 18 18 18 18 18 16 15 14 14 15 16 16 17 17 17 17 17
10 12 12 12 11 9 6 4 8 9 10 14 16 16 16 15 14 13 14 16 17 19 20 21 22 23 23 23 23 23 21 20 20 20 19 18 19 21 23 25 25 24 24 26 27 27 26 27 28 27 28 28 28 28 27 26 25 25 23 21 21 22 21 19 19 19 19 19 19 18 19 19 18 18 16 15 16 16 16 15 16 16 16 16 16
8 9 10 10 10 9 8 5 3 6 8 12 14 14 16 18 18 18 17 17 18 19 19 20 21 22 21 21 22 22 21 20 20 20 20 19 20 20 21 22 22 22 22 23 23 23 24 25 27 28 28 29 30 30 30 29 28 26 25 23 23 23 22 21 22 23 23 22 21 19 19 17 16 17 17 16 15 15 14 14 15 15 15 15 15
8 8 7 6 8 8 7 6 5 5 6 10 14 14 14 16 18 19 18 18 18 19 20 19 19 21 19 17 18 18 18 19 19 20 20 20 20 20 21 22 21 21 21 22 21 21 21 22 24 26 27 27 27 28 29 30 29 27 25 24 24 24 24 24 26 26 25 24 24 23 21 19 18 18 17 15 14 13 13 14 14 14 15 15 15
7 8 6 6 6 6 5 5 6 7 6 7 11 14 16 17 18 18 16 15 14 15 17 16 17 18 17 16 17 17 17 18 19 20 20 20 21 20 21 21 21 21 21 20 21 22 23 22 22 23 24 23 23 24 25 26 27 26 26 25 23 23 25 27 27 27 27 27 27 26 25 23 22 20 18 16 15 14 13 14 14 14 15 14 14
8 8 8 8 7 5 5 6 6 6 6 5 6 7 11 14 17 18 16 13 12 12 12 14 17 18 16 15 18 19 18 19 20 20 20 20 20 19 19 19 20 20 20 20 20 22 24 24 23 22 21 20 20 22 23 24 24 24 26 25 23 25 27 27 27 28 28 28 27 27 25 24 22 19 18 18 18 16 15 15 15 15 15 14 14
9 9 10 10 9 7 6 6 6 6 6 5 4 3 5 7 12 15 15 14 13 12 11 11 14 17 16 15 17 19 19 19 20 20 19 18 17 17 17 18 18 20 20 20 19 20 22 23 23 22 20 19 19 20 20 21 21 21 22 22 22 23 25 25 26 27 27 27 26 25 24 23 21 19 18 18 18 18 18 17 16 15 15 15 15
9 9 10 10 8 7 6 5 5 6 6 5 4 4 5 6 6 8 10 12 13 14 14 13 13 14 15 16 18 18 17 17 17 16 16 16 16 16 17 17 18 18 19 19 18 17 18 19 20 20 19 19 20 19 18 18 19 19 19 21 22 24 26 25 24 24 24 25 25 23 22 21 19 17 17 17 17 18 19 19 18 18 17 16 15
8 9 10 9 7 7 7 7 6 6 7 6 5 5 5 5 4 3 4 6 8 12 14 15 15 14 15 16 17 16 14 13 13 12 10 10 12 14 15 16 16 17 17 18 18 17 18 18 17 17 18 19 19 20 21 21 21 20 20 23 25 26 26 26 24 23 23 23 23 22 22 21 20 19 19 19 19 19 19 19 20 20 19 17 16
7 8 9 9 8 9 10 10 8 8 8 6 4 3 1 1 1 1 3 3 4 7 9 11 11 12 13 15 16 15 12 10 9 10 8 6 8 11 13 14 14 15 16 17 17 17 18 18 18 18 19 20 20 22 23 24 24 23 23 25 26 26 26 26 25 23 21 21 22 22 22 21 20 21 21 21 21 21 20 20 20 20 19 18 18
7 7 7 8 8 9 10 11 10 8 6 5 4 3 2 3 2 2 3 4 4 4 6 7 7 7 9 11 14 16 14 9 7 8 7 5 7 10 11 12 13 13 14 15 15 16 16 16 17 18 18 19 21 23 24 24 25 25 25 25 25 26 25 24 24 23 21 21 21 23 24 22 20 21 21 21 21 21 21 22 22 22 21 20 20
7 6 6 7 7 7 9 9 10 9 6 5 5 4 2 1 2 3 3 3 3 3 3 4 4 4 5 6 8 10 11 9 7 8 7 7 8 9 9 9 9 9 11 12 14 15 15 16 17 18 18 18 20 21 22 23 24 25 25 25 24 25 25 24 25 24 21 20 22 23 23 22 20 20 20 20 20 22 22 23 24 24 24 24 24
8 7 7 8 8 8 8 8 9 10 9 8 8 8 8 9 9 9 9 9 10 10 10 9 9 9 8 7 7 7 8 8 7 7 7 7 7 6 4 3 3 4 5 6 7 8 10 13 15 17 17 18 19 21 22 22 23 23 24 24 24 25 25 26 27 25 22 22 23 23 21 20 20 19 20 20 21 22 22 22 23 24 24 25 25
8 9 10 10 10 10 11 10 11 11 11 12 13 14 14 15 15 15 15 15 16 15 14 13 12 12 11 11 11 11 11 10 10 9 8 6 6 6 5 4 3 2 3 3 3 2 2 3 5 7 9 10 12 15 17 18 19 21 23 25 26 27 28 28 29 28 26 25 24 23 21 20 19 19 20 21 21 21 21 21 22 22 23 23 23
9 9 8 9 11 13 13 12 12 12 12 14 16 17 18 19 19 19 18 18 17 16 15 14 13 13 12 11 11 12 12 12 11 10 8 7 7 7 6 5 5 5 6 6 6 6 5 5 5 4 2 1 2 5 6 8 9 11 15 19 22 24 25 24 23 26 30 29 24 22 21 19 19 20 19 19 19 19 19 19 19 20 21 23 24
10 8 7 9 11 13 13 12 12 11 10 12 14 16 18 19 20 20 20 19 18 17 16 15 14 14 14 14 13 12 12 13 11 9 8 7 6 5 5 5 6 6 6 6 7 7 6 6 5 5 3 2 2 2 3 4 5 5 5 6 9 11 12 10 9 17 24 23 19 18 18 17 16 15 13 12 14 15 15 16 18 19 21 23 25
9 7 8 11 13 13 13 11 10 9 9 9 10 13 16 18 18 19 19 18 18 17 17 16 16 16 16 17 17 16 16 15 14 12 10 9 8 7 8 8 8 8 7 7 8 7 6 5 5 4 3 3 4 5 5 5 5 5 5 5 5 5 6 5 2 2 7 9 8 10 12 11 9 8 8 9 10 12 13 14 16 18 19 21 23
9 7 8 11 13 13 11 10 10 11 12 10 8 11 16 18 18 18 17 17 17 18 18 18 18 18 18 18 18 17 17 17 16 15 14 13 12 11 11 11 10 10 10 10 11 10 9 8 7 7 7 7 7 8 7 7 6 5 5 5 4 4 4 3 4 4 3 2 2 4 5 5 6 8 9 9 8 10 11 13 15 16 17 18 19
9 8 8 8 8 7 8 9 12 15 16 13 12 13 17 19 19 17 17 17 19 19 18 19 19 20 20 20 19 18 17 17 17 16 16 16 16 15 14 14 13 13 14 14 14 13 11 10 10 9 9 9 9 10 10 9 9 9 8 7 6 5 5 5 4 3 3 1 2 3 4 5 6 6 6 7 8 10 11 12 14 14 15 15 16
9 9 8 7 7 7 9 11 12 13 14 14 14 15 17 18 18 17 17 18 19 19 19 20 21 22 22 22 21 21 19 19 19 18 18 19 18 17 17 17 16 15 15 15 14 13 11 11 11 11 10 10 10 10 10 10 10 10 9 9 9 8 7 7 6 5 4 3 2 1 1 1 2 2 4 6 8 10 12 14 14 13 13 13 13
12 11 11 11 12 13 14 13 12 11 13 13 12 14 16 17 17 16 17 17 17 18 20 20 21 22 22 22 22 22 22 22 22 21 21 20 19 18 18 17 16 15 15 15 15 14 14 14 15 14 13 12 11 11 11 11 10 10 10 10 9 8 8 7 7 7 6 6 6 6 5 4 4 3 5 6 9 12 14 14 12 11 11 10 10
12 12 12 13 14 15 15 14 13 12 12 11 11 12 14 15 15 14 14 13 14 16 17 18 19 19 20 20 20 21 21 22 23 23 23 23 21 20 20 19 19 18 17 17 17 17 17 17 17 16 15 14 13 13 12 12 12 11 11 10 9 8 8 8 8 8 8 7 7 6 6 5 4 4 5 8 11 13 13 14 14 14 14 13 12
13 13 12 12 13 14 13 12 12 12 11 9 9 11 14 14 14 13 12 11 11 12 13 15 15 16 16 18 18 18 19 20 21 22 22 23 22 21 21 21 21 20 19 18 18 17 17 17 16 15 14 14 14 14 14 13 13 12 12 11 9 9 9 9 10 9 7 6 5 5 5 4 4 4 7 10 11 12 13 15 17 16 16 15 14
15 14 12 12 12 12 10 9 10 10 10 10 10 12 13 13 13 12 11 10 10 9 10 11 11 12 13 14 14 15 16 16 17 18 19 20 21 20 20 21 21 21 20 20 19 19 18 17 15 14 13 13 14 15 15 15 14 13 12 11 9 9 9 9 9 8 6 5 5 4 4 3 4 6 8 9 11 13 14 15 15 15 14 13 12
15 13 12 13 13 11 10 9 9 10 11 11 11 12 11 10 10 10 9 10 10 9 9 9 8 8 8 9 9 10 11 12 13 14 15 16 17 18 18 18 19 19 19 19 19 20 19 18 16 14 13 13 14 14 15 14 14 14 13 11 10 9 8 7 6 5 4 3 3 3 3 4 5 6 9 11 13 13 14 14 13 12 11 11 11
13 11 11 12 13 11 11 11 11 10 10 10 11 11 10 9 9 8 8 8 9 9 9 8 6 6 6 5 5 6 7 8 10 11 12 13 13 14 14 14 15 15 16 17 18 19 19 18 17 14 13 12 12 13 13 12 13 13 13 13 12 12 11 11 10 8 5 4 3 4 4 4 5 8 11 12 11 11 13 13 11 8 9 10 11
Wind_Direction
183 180 186 187 179 182 187 184 188 188 185 187 190 195 207 213 193 175 174 176 173 170 170 170 171 175 175 173 172 171 172 172 172 175 176 176 175 174 176 181 184 185 188 183 180 182 187 196 197 195 198 198 195 191 192 195 192 186 183 187 197 188 182 237 299 209 200 253 242 212 226 259 255 239 247 265 266 273 287 289 285 288 291 285 290
180 178 182 181 175 179 180 178 182 180 183 190 190 193 210 222 199 184 183 180 176 174 172 168 168 172 172 169 168 169 170 170 173 177 180 183 187 185 183 187 192 192 192 186 186 193 197 197 193 199 204 200 197 195 200 199 191 192 187 193 206 188 169 6 322 295 271 299 265 234 244 244 231 233 241 256 262 268 282 286 283 290 305 292 300
178 173 175 174 171 173 173 173 178 180 183 188 191 199 210 218 207 197 191 184 179 176 173 166 160 165 171 170 168 168 169 171 174 177 182 187 192 192 189 192 196 195 195 192 191 196 200 200 199 208 208 201 202 204 208 203 194 193 190 200 211 194 184 324 335 330 310 307 282 248 254 252 248 245 250 264 265 263 269 279 283 306 330 319 311
184 176 179 176 171 171 172 174 179 183 185 187 194 203 207 214 214 207 195 186 182 175 170 162 152 157 168 172 171 169 169 173 177 180 185 188 191 194 192 194 199 197 198 196 194 201 208 212 211 210 206 203 209 213 211 198 189 189 194 208 216 212 226 257 302 321 315 307 306 265 264 271 258 239 249 265 254 243 244 262 288 314 330 331 330
191 181 194 193 176 174 174 177 182 186 189 191 198 205 208 214 215 212 200 188 182 174 167 160 157 161 166 169 171 172 176 179 182 185 187 187 190 194 194 197 202 201 200 198 198 208 213 217 216 209 208 209 208 212 211 193 189 193 201 212 216 226 242 244 241 276 321 315 312 320 281 318 325 212 235 241 228 228 232 251 284 309 315 326 334
192 183 189 193 186 179 177 181 186 190 192 195 200 206 212 215 214 211 201 192 183 174 168 164 164 168 173 175 174 175 181 184 187 187 186 187 190 194 195 198 203 203 202 201 204 213 215 214 212 207 212 213 206 210 208 193 193 199 207 212 206 218 241 237 226 234 305 322 321 31 96 46 40 42 322 251 234 233 235 258 280 306 315 332 335
191 192 192 189 189 184 182 185 189 192 194 195 200 205 211 216 213 205 196 193 183 171 171 173 173 178 183 185 182 180 184 187 190 190 186 191 198 199 197 199 202 202 204 207 209 215 216 210 207 209 212 210 205 206 199 191 196 201 210 213 205 219 235 224 220 224 238 258 162 146 144 2 23 25 1 338 313 308 262 278 291 336 336 340 334
195 199 198 195 191 185 185 188 191 194 194 195 201 204 208 213 208 200 195 193 186 176 179 188 194 197 196 197 195 190 191 194 196 197 195 203 213 207 201 201 201 201 203 207 210 213 214 207 205 210 208 203 203 201 193 191 198 207 215 215 209 224 232 219 222 227 226 220 188 175 190 335 25 7 351 350 344 339 324 307 293 291 302 313 320
201 200 195 196 196 191 189 190 191 193 195 198 203 203 208 209 201 197 196 195 192 185 184 192 203 211 211 208 204 201 204 206 204 206 207 213 219 208 202 203 201 201 204 205 209 212 209 206 209 213 207 202 200 198 196 196 202 212 221 224 218 222 228 225 228 229 226 220 202 192 208 237 11 344 324 328 332 332 327 319 307 296 288 291 306
198 200 194 192 200 201 198 195 193 193 196 200 203 202 205 205 201 200 199 196 193 190 189 191 197 208 213 209 206 208 211 210 208 212 214 215 212 198 199 205 201 203 208 206 208 209 204 204 211 213 210 207 203 200 202 203 208 215 224 233 232 229 230 235 238 234 235 236 216 200 212 229 309 329 320 316 319 322 322 322 321 313 305 303 306
193 197 196 197 212 213 204 201 199 194 194 197 199 201 202 202 203 205 203 197 194 193 194 194 195 200 205 206 207 211 212 211 208 210 214 211 201 192 200 210 206 207 210 207 208 208 204 206 210 211 211 210 206 203 205 208 212 219 225 232 237 240 238 240 245 242 246 248 234 224 223 224 298 314 310 307 312 317 319 326 329 321 314 314 314
199 194 195 202 218 212 203 203 205 198 193 196 197 200 202 201 203 205 204 201 198 197 197 198 198 198 202 207 209 212 213 212 208 206 210 209 204 204 214 219 213 212 213 211 210 209 209 212 213 211 211 208 204 206 210 215 219 222 228 231 233 237 237 241 247 246 247 248 246 245 237 234 285 301 299 300 309 314 316 323 328 323 320 322 321
207 199 192 195 206 207 205 204 206 202 197 198 198 199 201 202 204 207 206 203 201 202 202 203 201 200 203 208 210 212 212 212 209 207 209 214 216 216 221 225 217 213 215 216 215 214 214 217 218 216 214 209 205 211 217 223 226 227 229 232 231 230 232 239 246 246 247 248 247 246 237 242 276 291 289 290 299 307 311 317 322 320 319 324 325
212 205 188 168 160 192 207 208 207 204 201 200 199 200 203 204 207 209 209 207 205 204 205 206 205 203 204 207 209 210 211 212 211 210 211 217 222 218 220 228 222 214 217 223 223 221 219 220 223 224 223 219 213 216 221 226 230 230 229 231 232 230 231 238 243 244 246 245 243 239 233 240 260 278 282 281 282 292 304 312 314 310 315 323 325
227 215 206 209 198 189 209 212 210 206 203 204 203 202 205 206 208 211 211 209 208 206 206 206 205 204 204 208 211 211 212 214 212 212 214 216 220 219 221 230 230 222 225 230 227 224 223 223 226 228 231 231 226 221 223 227 231 232 233 234 235 235 239 245 245 243 243 242 240 237 233 238 251 269 277 276 276 279 288 303 306 302 311 322 324
247 233 230 231 222 220 221 213 212 208 204 206 206 204 207 208 208 211 213 211 210 209 208 206 205 205 205 208 212 213 214 216 215 214 216 218 220 222 225 231 232 230 234 237 233 226 223 226 230 230 231 235 235 230 229 232 235 236 237 239 240 241 248 256 257 255 251 246 243 241 240 244 252 262 269 272 275 276 277 286 295 299 306 314 316
219 230 234 235 226 225 229 211 209 207 203 206 209 209 210 209 206 208 210 211 212 211 209 207 206 206 206 208 212 214 213 215 216 215 219 224 226 228 230 232 231 232 236 239 241 235 228 229 233 233 231 234 239 239 236 236 237 239 240 242 243 243 248 256 262 263 260 254 248 246 245 243 243 252 263 265 269 273 273 274 284 297 303 305 305
191 207 222 230 228 225 232 212 205 204 204 205 209 212 210 209 208 206 205 208 210 211 211 209 208 207 208 208 211 215 215 213 216 218 221 227 231 229 230 232 233 234 233 234 238 238 235 234 234 235 236 239 244 246 245 241 239 240 241 243 245 246 248 253 256 259 261 261 257 252 249 242 240 250 259 260 263 268 269 268 274 285 292 294 295
118 111 174 211 219 221 230 225 205 204 205 205 207 209 208 208 209 207 206 208 208 208 209 209 209 208 208 209 211 216 218 215 217 221 224 229 232 227 225 229 232 233 230 224 226 231 237 241 240 240 242 243 247 249 248 244 242 244 245 245 246 247 249 251 252 254 259 265 265 262 256 246 244 250 254 257 261 265 267 265 267 272 276 281 285
88 88 108 178 201 213 222 253 225 199 200 203 205 207 209 210 211 210 211 210 209 209 207 205 206 208 209 210 211 214 218 218 219 223 227 232 234 230 227 225 225 229 229 226 228 234 240 244 245 247 249 250 250 251 249 246 246 248 249 248 246 245 246 247 249 251 254 259 263 264 261 253 247 251 255 257 262 268 270 266 262 260 263 271 278
76 88 92 135 167 191 209 229 255 191 192 198 203 207 210 210 210 211 211 211 211 212 209 205 205 207 209 211 213 215 217 218 219 220 225 229 230 229 231 225 219 223 233 236 239 241 242 243 246 250 255 258 259 259 258 256 254 253 254 254 249 245 246 247 247 247 246 248 256 264 267 264 258 259 261 264 273 279 274 264 259 255 260 272 279
39 85 93 138 164 177 195 202 197 190 190 192 199 205 207 206 205 207 207 210 212 212 211 211 209 208 209 210 212 216 219 221 220 217 217 220 220 220 226 226 221 224 231 236 240 242 242 243 245 249 251 257 265 268 268 265 261 259 259 257 253 249 248 249 250 251 249 250 260 269 272 272 267 264 263 267 274 274 258 254 259 261 270 281 283
36 80 103 172 195 179 188 195 191 190 192 195 199 201 203 207 209 207 205 210 215 215 215 217 215 212 211 209 210 212 216 221 222 219 216 216 219 222 227 228 226 228 231 231 233 237 240 241 243 244 244 249 257 262 266 269 267 262 257 256 260 258 252 251 256 260 261 261 267 274 277 275 270 266 265 265 265 261 256 262 268 273 281 285 284
65 94 107 141 194 167 171 188 193 194 198 206 209 199 197 203 207 208 209 211 216 217 218 222 221 216 212 211 210 208 209 215 221 222 221 221 223 227 229 230 230 231 231 230 231 233 235 237 238 240 243 246 251 255 258 263 266 264 259 257 261 264 262 260 263 269 271 267 266 268 270 270 266 264 266 264 261 261 264 268 271 277 282 282 281
72 96 106 117 153 163 165 176 182 187 198 212 224 218 210 208 207 212 217 216 214 212 214 220 223 219 214 211 210 209 209 214 220 224 225 225 227 229 232 233 233 234 234 233 234 234 234 235 236 238 242 245 248 252 253 255 261 265 266 265 262 262 266 268 269 274 274 268 264 262 263 265 262 262 266 267 266 266 267 269 271 275 277 278 279
67 86 100 107 120 135 154 176 181 181 191 205 216 220 220 219 215 216 222 224 219 210 211 220 225 221 217 214 213 214 216 219 223 228 230 231 231 233 236 237 238 239 239 238 239 239 238 237 237 237 240 242 244 246 246 246 248 252 259 265 264 260 260 265 269 271 269 266 267 268 269 267 263 264 267 266 267 268 269 272 273 272 272 275 279
70 79 90 98 105 105 104 159 197 201 197 193 194 199 204 209 213 214 218 224 223 216 214 221 227 224 218 216 217 218 220 222 227 232 234 234 235 237 239 239 240 242 244 244 243 243 243 241 240 240 241 242 243 244 245 244 243 243 246 252 258 256 254 258 264 266 266 266 269 272 274 271 267 267 265 263 267 271 273 275 275 274 274 276 280
82 83 85 88 93 101 101 107 174 210 211 194 185 188 196 203 211 214 216 220 222 221 217 215 222 227 222 218 219 220 221 224 229 234 236 237 239 241 241 240 239 241 244 244 244 245 246 246 246 245 246 246 245 246 246 245 246 246 243 244 250 252 250 252 259 263 265 266 267 269 273 275 272 264 258 258 263 269 275 279 277 276 277 277 278
83 85 83 79 75 83 101 110 126 150 181 190 186 187 193 199 201 201 206 213 215 217 215 210 216 225 223 217 218 219 221 226 231 235 238 240 242 242 241 238 239 242 244 244 244 246 248 247 247 248 249 251 252 252 250 248 247 249 249 249 250 249 248 251 257 261 263 264 266 268 272 274 268 259 257 259 260 261 268 274 275 276 278 279 278
83 81 72 64 59 61 81 103 125 139 149 169 182 191 198 200 198 193 195 205 212 215 213 206 209 215 213 212 217 222 225 228 230 233 237 240 241 240 238 237 240 244 244 244 247 249 249 248 249 251 251 254 256 256 255 253 251 251 253 253 248 245 247 251 255 258 260 262 264 268 272 271 266 262 264 266 264 259 257 262 270 274 276 277 277
81 77 66 57 53 56 82 96 106 127 138 140 152 179 195 203 210 210 209 213 220 223 215 205 209 213 208 204 213 221 225 228 229 231 233 236 239 240 241 244 246 245 244 246 250 251 249 248 249 251 253 254 257 258 257 256 255 253 253 251 247 246 249 252 256 260 261 262 263 266 269 268 266 267 270 268 265 262 258 259 264 268 269 271 274
81 76 66 57 51 50 68 88 95 109 120 121 129 149 170 194 213 221 225 226 226 226 222 214 213 215 211 206 208 213 218 222 225 229 231 235 241 246 248 250 252 250 250 252 252 251 249 247 249 251 250 247 248 251 251 250 248 246 247 250 250 250 251 254 259 261 261 260 261 263 266 266 266 268 270 270 269 267 265 261 258 259 263 267 271
81 75 65 58 52 47 55 72 87 102 108 108 121 136 137 147 177 211 230 235 229 226 226 226 224 220 214 210 208 208 210 215 219 225 232 238 243 248 250 250 250 251 252 251 249 247 245 245 247 247 243 241 241 244 244 241 239 239 242 248 251 251 252 256 260 260 258 256 256 258 262 265 267 266 268 272 273 270 267 262 258 259 260 262 267
82 80 72 65 64 68 71 76 91 111 114 114 125 129 129 132 142 177 216 223 224 224 224 227 231 229 219 210 208 209 209 210 213 217 227 240 246 248 249 249 248 247 247 248 249 247 245 245 247 244 242 244 247 249 248 245 242 241 242 245 249 252 256 259 260 259 257 255 254 257 260 262 262 263 266 271 273 271 268 266 265 264 262 262 264
92 88 82 76 74 76 75 73 81 99 105 103 100 96 105 189 171 230 240 233 230 230 226 228 235 240 237 227 223 221 218 216 216 212 213 239 257 254 251 247 244 244 245 247 250 251 252 253 253 250 248 249 250 252 251 248 245 243 243 246 250 254 257 258 257 256 256 255 253 253 254 256 256 259 263 266 268 269 268 268 269 268 268 269 269
105 95 89 85 76 74 76 69 65 76 96 104 80 43 335 293 278 254 248 251 257 251 242 241 242 242 242 236 231 229 227 228 228 219 218 240 252 252 252 247 244 244 245 248 251 254 256 256 255 254 253 252 252 252 252 249 247 246 248 252 255 256 255 255 254 251 248 248 248 248 249 252 255 258 261 263 263 265 266 269 272 274 274 275 275
114 107 101 97 85 76 75 69 61 64 85 103 84 61 58 132 163 179 181 184 191 186 187 203 198 184 196 209 216 220 219 218 220 220 225 234 233 238 247 249 251 251 248 248 250 251 253 253 253 254 253 253 253 253 253 253 252 253 255 257 258 256 254 252 250 245 238 238 243 246 249 252 251 252 256 259 261 263 266 269 272 274 275 276 277
122 119 113 109 103 92 83 75 69 68 74 87 94 98 104 105 106 111 116 121 124 122 119 118 117 119 132 143 145 157 173 178 177 183 193 201 202 208 218 224 238 246 241 240 244 248 250 249 250 251 251 251 254 256 258 258 258 260 261 261 261 260 256 253 250 244 236 234 239 241 242 245 245 247 251 254 256 260 263 266 269 272 275 278 279
132 127 116 111 107 100 93 86 83 82 86 93 98 102 104 99 95 96 99 100 100 100 101 103 105 105 107 113 117 123 133 138 138 141 149 146 135 129 125 120 120 129 134 135 137 142 179 213 232 246 253 257 260 262 265 266 266 266 265 264 260 257 255 253 249 244 236 232 233 236 237 239 243 246 250 252 256 259 262 266 270 274 278 282 284
141 137 129 122 113 105 101 95 90 90 95 99 99 100 100 97 92 90 89 88 88 89 89 91 93 95 96 98 103 109 115 119 123 126 124 117 113 111 108 108 110 106 104 106 105 97 92 93 95 93 83 3 280 272 277 283 284 280 272 262 252 250 254 254 243 232 228 227 228 230 232 236 242 246 248 252 259 264 266 271 276 280 284 287 288
137 133 135 133 123 116 113 105 96 95 101 104 104 102 100 97 92 87 84 83 85 87 88 90 90 90 90 89 88 91 96 99 102 107 111 111 106 95 84 85 93 98 101 104 98 91 87 87 90 92 85 64 34 1 342 336 336 335 324 291 264 264 275 271 227 203 205 212 221 227 228 231 238 245 248 248 257 268 273 278 282 286 289 291 292
136 132 138 135 127 124 118 106 103 115 117 110 109 108 104 100 94 89 85 84 84 83 82 83 84 85 85 84 82 81 81 83 84 86 89 90 84 79 74 70 72 79 89 94 90 86 84 83 82 79 65 43 30 22 14 10 2 356 2 0 337 325 330 328 317 157 160 176 208 228 230 231 237 256 269 269 274 285 291 293 293 295 296 298 300
145 144 146 136 127 122 111 97 98 105 103 105 117 115 104 98 93 90 88 84 79 78 77 75 77 81 82 81 81 81 80 81 81 81 82 81 78 78 79 76 74 77 83 87 85 81 81 79 74 71 66 61 57 53 49 45 39 34 33 33 21 4 4 355 338 355 42 96 228 250 255 270 285 287 287 294 307 313 312 311 309 307 307 308 309
147 145 152 154 144 130 114 106 104 100 96 102 114 111 102 97 93 91 88 83 79 81 83 80 78 79 80 79 79 81 83 85 85 84 85 85 82 81 82 82 82 83 86 88 87 84 84 84 81 78 73 70 68 65 64 62 59 58 57 55 54 46 34 30 22 16 21 1 295 283 288 301 303 297 302 325 340 338 333 329 325 321 319 319 319
148 141 149 164 163 147 136 130 123 115 112 113 113 108 103 99 95 92 88 85 83 83 83 82 80 80 79 79 79 80 82 84 86 86 86 85 84 84 83 82 82 82 83 84 83 81 80 80 80 80 77 73 69 65 64 65 65 65 66 64 62 61 56 48 43 37 34 36 37 37 39 32 17 353 350 355 355 350 347 344 340 335 332 329 326
154 144 142 144 141 139 140 140 138 134 129 127 126 120 111 105 102 97 91 89 88 85 80 78 79 80 80 79 79 79 79 80 81 81 81 81 81 82 82 81 80 79 78 77 78 78 78 76 75 75 75 75 75 72 70 71 70 68 68 69 69 70 68 64 63 65 69 76 82 88 92 88 69 41 22 14 6 360 357 357 356 355 352 350 349
163 157 151 144 137 136 138 142 148 149 142 137 135 130 124 117 111 105 98 93 91 88 82 77 76 77 79 79 78 79 80 79 78 76 76 77 77 79 80 80 78 77 76 76 76 75 74 72 72 74 75 76 78 78 78 78 77 73 69 70 73 73 66 59 61 70 81 85 83 85 88 86 74 55 29 13 6 6 10 15 17 17 18 21 24
164 163 160 153 145 143 145 146 150 155 159 156 143 133 132 129 120 115 112 105 97 91 86 81 77 76 77 78 78 79 80 80 77 74 73 74 74 75 76 76 75 74 73 73 72 72 71 70 70 72 75 78 79 79 78 77 75 72 72 75 76 70 61 54 53 56 64 72 73 73 76 73 60 32 11 6 12 23 29 26 24 26 31 34 35
165 166 170 169 162 161 161 152 142 144 153 155 142 134 135 130 121 117 116 113 111 105 93 87 82 78 77 78 80 81 82 81 78 74 72 71 71 70 71 72 72 71 71 70 69 69 68 69 70 71 72 75 76 74 73 72 71 70 71 75 76 70 61 55 50 45 43 50 59 60 53 36 16 6 8 20 34 39 36 30 27 29 35 38 39
171 172 177 180 179 179 173 154 137 131 133 133 131 134 137 131 122 116 109 110 120 124 113 103 94 82 78 80 82 85 86 87 83 78 74 72 70 68 68 69 69 69 67 65 64 63 63 65 67 69 70 71 72 71 68 66 65 64 63 62 62 60 53 48 41 27 8 356 357 2 3 1 4 13 28 40 43 36 31 32 33 32 36 42 46
179 179 175 173 172 169 160 146 137 132 129 126 126 132 138 140 137 127 112 112 123 131 127 116 103 91 89 87 80 76 80 85 86 83 81 79 75 70 64 62 64 65 64 60 57 58 60 60 61 66 71 74 73 72 67 62 57 55 53 51 49 46 42 37 27 10 351 342 352 5 18 31 44 51 48 46 41 31 28 32 34 34 44 54 56